| time (UTC) | temp C | wind direction | speed KPH | gust KPH | rain 1hr cm | rain 24hr cm | rain mn cm | humidity % | barometer mb |
| 20260505190003 | 13 | 13 | 4.8 | 22.5 | 0.00 | 0.00 | 0.00 | 75 | 1010.7 |
| 20260505185003 | 13 | 23 | 4.8 | 14.5 | 0.00 | 0.00 | 0.00 | 75 | 1010.7 |
| 20260505183003 | 13 | 22 | 8.0 | 17.7 | 0.00 | 0.00 | 0.00 | 73 | 1010.6 |
| 20260505182003 | 14 | 6 | 4.8 | 17.7 | 0.00 | 0.00 | 0.00 | 72 | 1010.5 |
| 20260505181003 | 14 | 1 | 4.8 | 14.5 | 0.00 | 0.00 | 0.00 | 70 | 1010.5 |
| 20260505180004 | 14 | 9 | 6.4 | 12.9 | 0.00 | 0.00 | 0.00 | 69 | 1010.4 |
| 20260505174003 | 14 | 20 | 6.4 | 12.9 | 0.00 | 0.00 | 0.00 | 68 | 1010.5 |
| 20260505173003 | 15 | 359 | 8.0 | 16.1 | 0.00 | 0.00 | 0.00 | 68 | 1010.5 |
| 20260505172003 | 15 | 353 | 6.4 | 19.3 | 0.00 | 0.00 | 0.00 | 68 | 1010.5 |
| 20260505170003 | 15 | 351 | 6.4 | 16.1 | 0.00 | 0.00 | 0.00 | 67 | 1010.5 |
| 20260505165004 | 15 | 7 | 6.4 | 16.1 | 0.00 | 0.00 | 0.00 | 67 | 1010.5 |
| 20260505164003 | 15 | 5 | 6.4 | 17.7 | 0.00 | 0.00 | 0.00 | 66 | 1010.5 |
| 20260505163003 | 15 | 343 | 6.4 | 16.1 | 0.00 | 0.00 | 0.00 | 65 | 1010.5 |
| 20260505162003 | 15 | 349 | 6.4 | 19.3 | 0.00 | 0.00 | 0.00 | 66 | 1010.5 |
| 20260505161003 | 15 | 343 | 6.4 | 16.1 | 0.00 | 0.00 | 0.00 | 66 | 1010.5 |
| 20260505153003 | 15 | 349 | 4.8 | 12.9 | 0.00 | 0.00 | 0.00 | 63 | 1010.6 |
| 20260505152004 | 16 | 350 | 6.4 | 12.9 | 0.00 | 0.00 | 0.00 | 63 | 1010.6 |
| 20260505151003 | 16 | 340 | 4.8 | 16.1 | 0.00 | 0.00 | 0.00 | 63 | 1010.7 |
| 20260505125003 | 15 | 1 | 4.8 | 14.5 | 0.00 | 0.00 | 0.00 | 67 | 1011.3 |
| 20260505123003 | 15 | 6 | 4.8 | 9.7 | 0.00 | 0.00 | 0.00 | 66 | 1011.3 |
| 20260505122004 | 15 | 71 | 4.8 | 17.7 | 0.00 | 0.00 | 0.00 | 65 | 1011.3 |
| 20260505121003 | 15 | 61 | 3.2 | 12.9 | 0.00 | 0.00 | 0.00 | 65 | 1011.2 |
| 20260505120004 | 15 | 41 | 6.4 | 12.9 | 0.00 | 0.00 | 0.00 | 68 | 1011.3 |
| 20260505115003 | 15 | 8 | 4.8 | 14.5 | 0.00 | 0.00 | 0.00 | 67 | 1011.3 |
| 20260505114005 | 15 | 52 | 6.4 | 16.1 | 0.00 | 0.00 | 0.00 | 69 | 1011.4 |
| 20260505113004 | 14 | 13 | 4.8 | 12.9 | 0.00 | 0.00 | 0.00 | 70 | 1011.5 |
| 20260505112004 | 14 | 41 | 4.8 | 12.9 | 0.00 | 0.00 | 0.00 | 70 | 1011.5 |
| 20260505111005 | 14 | 54 | 4.8 | 12.9 | 0.00 | 0.00 | 0.00 | 70 | 1011.7 |
| 20260505102003 | 13 | 38 | 4.8 | 14.5 | 0.00 | 0.00 | 0.00 | 73 | 1012.0 |
| 20260505101003 | 13 | 28 | 6.4 | 12.9 | 0.00 | 0.00 | 0.00 | 75 | 1012.0 |
| 20260505100004 | 13 | 13 | 4.8 | 16.1 | 0.00 | 0.00 | 0.00 | 75 | 1012.0 |
| 20260505095003 | 13 | 30 | 4.8 | 19.3 | 0.00 | 0.00 | 0.00 | 78 | 1012.0 |
| 20260505094003 | 13 | 11 | 8.0 | 17.7 | 0.00 | 0.00 | 0.00 | 80 | 1012.2 |
| 20260505093003 | 12 | 36 | 4.8 | 19.3 | 0.00 | 0.00 | 0.00 | 79 | 1012.2 |
| 20260505092003 | 12 | 13 | 6.4 | 16.1 | 0.00 | 0.00 | 0.00 | 82 | 1012.2 |
| 20260505090004 | 11 | 355 | 4.8 | 12.9 | 0.00 | 0.00 | 0.00 | 87 | 1012.4 |
| 20260505085003 | 11 | 4 | 4.8 | 14.5 | 0.00 | 0.00 | 0.00 | 89 | 1012.5 |
| 20260505083003 | 10 | 346 | 3.2 | 12.9 | 0.00 | 0.00 | 0.00 | 90 | 1012.5 |
| 20260505082004 | 10 | 14 | 3.2 | 6.4 | 0.00 | 0.00 | 0.00 | 91 | 1012.4 |
| 20260505081004 | 10 | 6 | 4.8 | 9.7 | 0.00 | 0.00 | 0.00 | 91 | 1012.4 |
| 20260505080004 | 10 | 355 | 1.6 | 9.7 | 0.00 | 0.00 | 0.00 | 92 | 1012.3 |
| 20260505074003 | 10 | 342 | 1.6 | 6.4 | 0.00 | 0.00 | 0.00 | 93 | 1012.5 |
| 20260505072002 | 10 | 348 | 1.6 | 8.0 | 0.00 | 0.00 | 0.00 | 93 | 1012.4 |
| 20260505071003 | 10 | 347 | 3.2 | 6.4 | 0.00 | 0.00 | 0.00 | 94 | 1012.6 |
| 20260505070003 | 10 | 349 | 1.6 | 8.0 | 0.00 | 0.00 | 0.00 | 94 | 1012.6 |
| 20260505065003 | 10 | 349 | 1.6 | 4.8 | 0.00 | 0.00 | 0.00 | 94 | 1012.6 |
| 20260505064003 | 10 | 349 | 1.6 | 4.8 | 0.00 | 0.00 | 0.00 | 94 | 1012.7 |
| 20260505062003 | 10 | 349 | 1.6 | 4.8 | 0.00 | 0.00 | 0.00 | 94 | 1012.6 |
| 20260505061004 | 10 | 349 | 1.6 | 6.4 | 0.00 | 0.00 | 0.00 | 94 | 1012.6 |
| 20260505060003 | 9 | 349 | 1.6 | 6.4 | 0.00 | 0.00 | 0.00 | 94 | 1012.6 |
| 20260505055003 | 9 | 350 | 1.6 | 6.4 | 0.00 | 0.00 | 0.00 | 94 | 1012.7 |
| 20260505054003 | 9 | 350 | 1.6 | 6.4 | 0.00 | 0.00 | 0.00 | 94 | 1012.8 |
| 20260505053003 | 9 | 2 | 3.2 | 8.0 | 0.00 | 0.00 | 0.00 | 94 | 1012.8 |
| 20260505051003 | 9 | 29 | 0.0 | 4.8 | 0.00 | 0.00 | 0.00 | 94 | 1012.8 |
| 20260505041003 | 8 | 30 | 1.6 | 4.8 | 0.00 | 0.00 | 0.00 | 94 | 1012.9 |
| 20260505035003 | 8 | 30 | 0.0 | 3.2 | 0.00 | 0.00 | 0.00 | 94 | 1012.8 |
| 20260505033003 | 8 | 30 | 0.0 | 4.8 | 0.00 | 0.00 | 0.00 | 94 | 1012.9 |
| 20260505032003 | 8 | 0 | 0.0 | 3.2 | 0.00 | 0.00 | 0.00 | 93 | 1013.0 |
| 20260505031003 | 8 | 36 | 1.6 | 6.4 | 0.00 | 0.00 | 0.00 | 93 | 1012.9 |
| 20260505030003 | 8 | 42 | 1.6 | 3.2 | 0.00 | 0.00 | 0.00 | 93 | 1012.9 |
| 20260505025004 | 9 | 42 | 0.0 | 3.2 | 0.00 | 0.00 | 0.00 | 92 | 1012.8 |
| 20260505022004 | 10 | 42 | 0.0 | 4.8 | 0.00 | 0.00 | 0.00 | 92 | 1012.7 |
| 20260505021003 | 10 | 43 | 0.0 | 3.2 | 0.00 | 0.00 | 0.00 | 91 | 1012.8 |
| 20260505020004 | 10 | 42 | 1.6 | 4.8 | 0.00 | 0.00 | 0.00 | 91 | 1012.6 |
| 20260505015003 | 10 | 42 | 1.6 | 6.4 | 0.00 | 0.00 | 0.00 | 91 | 1013.0 |
| 20260505014003 | 10 | 30 | 1.6 | 8.0 | 0.00 | 0.00 | 0.00 | 91 | 1013.1 |
| 20260505013003 | 10 | 30 | 1.6 | 6.4 | 0.00 | 0.00 | 0.00 | 91 | 1013.3 |
| 20260505012003 | 10 | 0 | 0.0 | 8.0 | 0.00 | 0.00 | 0.00 | 91 | 1013.3 |
| 20260505011003 | 10 | 25 | 1.6 | 4.8 | 0.00 | 0.00 | 0.00 | 91 | 1013.4 |
| 20260505010003 | 10 | 25 | 3.2 | 6.4 | 0.00 | 0.00 | 0.00 | 91 | 1013.3 |
| 20260505005004 | 10 | 22 | 1.6 | 6.4 | 0.00 | 0.00 | 0.00 | 91 | 1013.4 |
| 20260505003003 | 10 | 20 | 1.6 | 8.0 | 0.00 | 0.00 | 0.00 | 90 | 1013.4 |
| 20260505002003 | 11 | 20 | 1.6 | 6.4 | 0.00 | 0.00 | 0.00 | 90 | 1013.4 |
| 20260505001003 | 11 | 16 | 1.6 | 6.4 | 0.00 | 0.00 | 0.00 | 89 | 1013.4 |
| 20260505000004 | 11 | 15 | 1.6 | 6.4 | 0.00 | 0.00 | 0.00 | 89 | 1013.5 |
| 20260504232004 | 11 | 38 | 3.2 | 6.4 | 0.00 | 0.00 | 0.00 | 88 | 1013.8 |
| 20260504231003 | 11 | 35 | 3.2 | 9.7 | 0.00 | 0.00 | 0.00 | 88 | 1013.8 |
| 20260504230003 | 11 | 15 | 3.2 | 12.9 | 0.00 | 0.00 | 0.00 | 88 | 1013.7 |
| 20260504225004 | 11 | 15 | 3.2 | 8.0 | 0.00 | 0.00 | 0.00 | 87 | 1013.9 |
| 20260504224003 | 11 | 21 | 3.2 | 11.3 | 0.00 | 0.00 | 0.00 | 87 | 1013.9 |
| 20260504223004 | 11 | 9 | 3.2 | 12.9 | 0.00 | 0.00 | 0.00 | 87 | 1014.0 |
| 20260504222003 | 11 | 12 | 3.2 | 11.3 | 0.00 | 0.00 | 0.00 | 87 | 1014.0 |
| 20260504220003 | 12 | 18 | 4.8 | 16.1 | 0.00 | 0.00 | 0.00 | 87 | 1014.1 |
| 20260504215003 | 12 | 26 | 4.8 | 12.9 | 0.00 | 0.00 | 0.00 | 87 | 1014.1 |
| 20260504214004 | 12 | 36 | 4.8 | 16.1 | 0.00 | 0.00 | 0.00 | 86 | 1014.1 |
| 20260504213003 | 12 | 28 | 4.8 | 14.5 | 0.00 | 0.00 | 0.00 | 86 | 1014.0 |
| 20260504212003 | 12 | 31 | 4.8 | 17.7 | 0.00 | 0.00 | 0.00 | 86 | 1014.0 |
| 20260504211004 | 12 | 36 | 8.0 | 16.1 | 0.00 | 0.00 | 0.00 | 86 | 1014.0 |
| 20260504210003 | 12 | 36 | 8.0 | 17.7 | 0.00 | 0.00 | 0.00 | 86 | 1014.0 |
| 20260504205003 | 12 | 28 | 6.4 | 17.7 | 0.00 | 0.00 | 0.00 | 86 | 1014.0 |
| 20260504204005 | 12 | 2 | 4.8 | 12.9 | 0.00 | 0.00 | 0.00 | 85 | 1014.0 |
| 20260504202004 | 13 | 13 | 4.8 | 14.5 | 0.00 | 0.00 | 0.00 | 85 | 1014.0 |
| 20260504200004 | 13 | 19 | 3.2 | 9.7 | 0.00 | 0.00 | 0.00 | 85 | 1013.9 |
| 20260504195003 | 13 | 11 | 4.8 | 16.1 | 0.00 | 0.00 | 0.00 | 85 | 1013.8 |
| 20260504194003 | 13 | 11 | 4.8 | 12.9 | 0.00 | 0.00 | 0.00 | 85 | 1013.7 |
| 20260504193003 | 13 | 24 | 3.2 | 14.5 | 0.00 | 0.00 | 0.00 | 84 | 1013.7 |
| 20260504192003 | 13 | 23 | 1.6 | 9.7 | 0.00 | 0.00 | 0.00 | 84 | 1013.6 |
| 20260504191005 | 13 | 11 | 3.2 | 6.4 | 0.00 | 0.00 | 0.00 | 84 | 1013.5 |